Oxford, CT

4:16 PM EDT on May 27, 2018 (GMT -0400)
Waterbury-Oxford

Weather History for KOXC - January, 2014

Change the Weather History Date:

Sunday, January 19, 2014

  Actual Average Record
Temperature  
Mean Temperature 26 °F -  
Max Temperature 32 °F 28 °F 44 °F (1999)
Min Temperature 21 °F 15 °F -2 °F (1997)
Degree Days  
Heating Degree Days 38    
Moisture  
Dew Point 17 °F    
Average Humidity 68    
Maximum Humidity 80    
Minimum Humidity 55    
Precipitation  
Precipitation 0.00 in - - ()
Sea Level Pressure  
Sea Level Pressure 29.70 in    
Wind  
Wind Speed 6 mph (West)    
Max Wind Speed 14 mph    
Max Gust Speed 23 mph    
Visibility 10 miles    
Events Snow    
Averages and records for this station are not official NWS values.
T = Trace of Precipitation, MM = Missing Value Source: NWS Daily Summary

Daily Weather History Graph

Daily Weather History Graph

Search for Another Location

Airport or City:

Astronomy

Jan. 19, 2014 Rise Set
Actual Time 7:14 AM EST 4:52 PM EST
Civil Twilight 6:44 AM EST 5:22 PM EST
Nautical Twilight 6:10 AM EST 5:56 PM EST
Astronomical Twilight 5:37 AM EST 6:29 PM EST
Moon 8:31 PM EST (1/19) 8:40 AM EST (1/19)
Length of Visible Light 10h 38m
Length of Day
9h 37m
Waning Gibbous, 89% of the Moon is Illuminated
Jan 19
Waning Gibbous
Jan 24
Last Quarter
Jan 30
New
Feb 6
First Quarter
Feb 14
Full

Hourly Weather History & Observations

Time (EST) Temp. Windchill Dew Point Humidity Pressure Visibility Wind Dir Wind Speed Gust Speed Precip Events Conditions
12:15 AM 24.8 °F 17.9 °F 15.8 °F 69% 29.78 in 10.0 mi West 5.8 mph - N/A   Clear
12:35 AM 24.8 °F 17.9 °F 17.6 °F 74% 29.79 in 10.0 mi West 5.8 mph - N/A   Mostly Cloudy
12:55 AM 24.8 °F 20.5 °F 17.6 °F 74% 29.78 in 10.0 mi West 3.5 mph - N/A   Overcast
1:15 AM 24.8 °F 19.1 °F 17.6 °F 74% 29.77 in 10.0 mi West 4.6 mph - N/A   Scattered Clouds
1:35 AM 24.8 °F 17.9 °F 15.8 °F 69% 29.76 in 10.0 mi NW 5.8 mph - N/A   Clear
1:55 AM 24.8 °F 19.1 °F 15.8 °F 69% 29.76 in 10.0 mi West 4.6 mph - N/A   Clear
2:15 AM 24.8 °F 19.1 °F 15.8 °F 69% 29.77 in 10.0 mi West 4.6 mph - N/A   Clear
2:35 AM 23.0 °F 18.4 °F 15.8 °F 74% 29.77 in 10.0 mi WNW 3.5 mph - N/A   Clear
2:55 AM 23.0 °F 18.4 °F 15.8 °F 74% 29.77 in 10.0 mi West 3.5 mph - N/A   Partly Cloudy
3:15 AM 23.0 °F 17.0 °F 15.8 °F 74% 29.77 in 10.0 mi West 4.6 mph - N/A   Clear
3:35 AM 23.0 °F 17.0 °F 15.8 °F 74% 29.76 in 10.0 mi West 4.6 mph - N/A   Clear
3:55 AM 23.0 °F 17.0 °F 15.8 °F 74% 29.76 in 10.0 mi West 4.6 mph - N/A   Clear
4:15 AM 23.0 °F 18.4 °F 15.8 °F 74% 29.76 in 10.0 mi West 3.5 mph - N/A   Partly Cloudy
4:35 AM 23.0 °F 15.8 °F 15.8 °F 74% 29.76 in 10.0 mi West 5.8 mph - N/A   Mostly Cloudy
4:55 AM 23.0 °F 18.4 °F 15.8 °F 74% 29.75 in 10.0 mi West 3.5 mph - N/A   Overcast
5:15 AM 23.0 °F 17.0 °F 15.8 °F 74% 29.75 in 10.0 mi WSW 4.6 mph - N/A   Overcast
5:35 AM 23.0 °F 15.8 °F 15.8 °F 74% 29.75 in 10.0 mi West 5.8 mph - N/A   Overcast
5:45 AM 23.0 °F 17.0 °F 15.8 °F 74% 29.76 in 10.0 mi West 4.6 mph - N/A   Overcast
6:45 AM 23.0 °F 17.0 °F 15.8 °F 74% 29.75 in 4.0 mi West 4.6 mph - N/A   Overcast
6:55 AM 23.0 °F 15.8 °F 15.8 °F 74% 29.75 in 2.0 mi West 5.8 mph - N/A Snow Light Snow
7:45 AM 21.2 °F 14.9 °F 15.8 °F 80% 29.75 in 5.0 mi West 4.6 mph - N/A Snow Light Snow
8:05 AM 21.2 °F 14.9 °F 15.8 °F 80% 29.74 in 10.0 mi West 4.6 mph - N/A   Scattered Clouds
8:45 AM 23.0 °F 14.7 °F 15.8 °F 74% 29.75 in 10.0 mi WSW 6.9 mph - N/A   Mostly Cloudy
9:48 AM 24.8 °F 16.9 °F 14.0 °F 64% 29.75 in 10.0 mi WSW 6.9 mph 16.1 mph N/A   Scattered Clouds
10:48 AM 26.6 °F 16.2 °F 12.2 °F 55% 29.73 in 10.0 mi West 11.5 mph 23.0 mph N/A   Scattered Clouds
11:48 AM 28.4 °F 17.5 °F 14.0 °F 55% 29.69 in 10.0 mi West 13.8 mph 20.7 mph N/A   Mostly Cloudy
12:48 PM 28.4 °F 19.7 °F 15.8 °F 59% 29.65 in 10.0 mi West 9.2 mph - N/A   Overcast
1:55 PM 30.2 °F - 17.6 °F 60% 29.62 in 10.0 mi North - - N/A   Scattered Clouds
2:45 PM 30.2 °F 24.3 °F 17.6 °F 60% 29.62 in 10.0 mi West 5.8 mph 17.3 mph N/A   Scattered Clouds
3:45 PM 30.2 °F 22.6 °F 17.6 °F 60% 29.61 in 10.0 mi WSW 8.1 mph 16.1 mph N/A   Mostly Cloudy
4:45 PM 30.2 °F 20.8 °F 15.8 °F 55% 29.61 in 10.0 mi SW 11.5 mph 20.7 mph N/A   Mostly Cloudy
5:45 PM 28.4 °F 19.7 °F 17.6 °F 64% 29.62 in 10.0 mi West 9.2 mph 19.6 mph N/A   Mostly Cloudy
6:45 PM 28.4 °F 19.1 °F 17.6 °F 64% 29.64 in 10.0 mi West 10.4 mph 18.4 mph N/A   Overcast
9:15 PM 30.2 °F 23.4 °F 17.6 °F 60% 29.63 in 10.0 mi WSW 6.9 mph - N/A   Overcast
9:35 PM 30.2 °F 23.4 °F 17.6 °F 60% 29.63 in 10.0 mi WSW 6.9 mph - N/A   Overcast
9:55 PM 30.2 °F 23.4 °F 19.4 °F 64% 29.63 in 10.0 mi WSW 6.9 mph - N/A   Scattered Clouds
10:15 PM 30.2 °F 21.9 °F 19.4 °F 64% 29.62 in 10.0 mi WSW 9.2 mph - N/A   Mostly Cloudy
10:35 PM 30.2 °F 21.3 °F 17.6 °F 60% 29.62 in 10.0 mi WSW 10.4 mph 18.4 mph N/A   Overcast
10:55 PM 30.2 °F 22.6 °F 19.4 °F 64% 29.61 in 10.0 mi WSW 8.1 mph - N/A   Overcast
11:15 PM 30.2 °F 23.4 °F 19.4 °F 64% 29.61 in 10.0 mi WSW 6.9 mph - N/A   Overcast
11:35 PM 32.0 °F 24.2 °F 19.4 °F 60% 29.61 in 10.0 mi WSW 9.2 mph - N/A   Overcast
11:55 PM 32.0 °F 24.2 °F 19.4 °F 60% 29.60 in 10.0 mi West 9.2 mph - N/A   Overcast